Location: Enborne
(51.3833°N, 1.3667°W)
Time: 22:46:07
(UTC+00:00)

USA 229 - Pass Details

Date: 18 September 2020
Orbit: 973 x 1239 km, 63.4° (Epoch: 14 October)

Event Time Altitude Azimuth Distance (km) Brightness Sun altitude
Rises 18:40:16 0° 240° (WSW) 3,712 7.5 -5.2°
Reaches altitude 10° 18:42:50 10° 244° (WSW) 2,790 6.9 -5.6°
Maximum altitude 18:49:19 59° 324° (NW) 1,207 4.3 -6.6°
Drops below altitude 10° 18:56:16 10° 44° (NE) 2,977 5.7 -7.7°
Sets 18:59:06 0° 48° (NE) 3,979 6.3 -8.1°
